Regional Weather Roundup
Issued by NWS

Home | Current Version | Previous Version | Text Only | Print | Product List | Glossary On
Versions: 1 2 3 4 5 6 7 8 9 10 11 12 13 14 15 16 17 18 19 20 21 22 23 24 25 26 27 28 29 30 31 32 33 34 35 36 37 38 39 40 41 42 43 44 45 46 47 48 49 50
000
ASUS43 KMPX 280501
RWRMN
WEATHER ROUNDUP FOR MINNESOTA
NATIONAL WEATHER SERVICE TWIN CITIES/CHANHASSEN MN
1200 AM CDT MON MAY 28 2018


NOTE: "FAIR" INDICATES FEW OR NO CLOUDS BELOW 12,000 FEET WITH NO
SIGNIFICANT WEATHER AND/OR OBSTRUCTIONS TO VISIBILITY. N/A MEANS
CURRENT SKY AND/OR WEATHER CONDITIONS ARE NOT AVAILABLE.

MNZ060>063-068>070-280600-
   Twin Cities Metro

CITY           SKY/WX    TMP DP  RH WIND       PRES   REMARKS
TWIN CITIES    MOCLDY    85  56  37 S10       29.82R
ST PAUL        MOCLDY    75  60  59 S5        29.81S
CRYSTAL        FAIR      84  53  34 S9        29.79S
BLAINE         FAIR      81  55  41 S9        29.81R
LAKEVILLE      FAIR      81  55  41 S9        29.82R
EDEN PRAIRIE   FAIR      83  56  39 S7        29.81R
SOUTH ST PAUL  FAIR      78  55  44 S3        29.81S
LAKE ELMO      FAIR      77  59  53 S7        29.83S
$$
MNZ001>005-007-008-013>017-022>024-027-028-280600-
   Northwest Minnesota

CITY           SKY/WX    TMP DP  RH WIND       PRES   REMARKS
BEMIDJI        MOCLDY    68  60  75 N6        29.88S
HALLOCK        FAIR      66  61  82 E3        29.88S
ROSEAU         FAIR      63  57  82 CALM      29.90R
WARROAD        FAIR      61  55  82 CALM      29.91R
THIEF RVR FALL FAIR      69  57  65 NE7       29.90S
CROOKSTON      FAIR     N/A N/A N/A E6        29.88S
FOSSTON        FAIR      68  57  68 NE5       29.89S
DETROIT LAKES  FAIR      72  61  68 NE3       29.88R
MOORHEAD       FAIR      70  63  78 N9        29.84R
PARK RAPIDS    MOCLDY    70  62  76 NE3       29.86S
MAHNOMEN       FAIR      68  61  79 NE7       29.87R
$$
MNZ006-009>011-018-025>026-280600-
   North Central Minnesota

CITY           SKY/WX    TMP DP  RH WIND       PRES   REMARKS
BAUDETTE         N/A    N/A N/A N/A MISG      29.90R
FLAG ISLAND    FAIR      66  61  82 CALM      29.88S HAZE
INTL FALLS     FAIR      58  58 100 N3        29.90R
WASKISH        FAIR      68  59  73 CALM      29.90S
BIG FORK       MOCLDY    66  63  88 CALM      29.89F
LONGVILLE      MOCLDY    66  64  94 CALM      29.87S
GRAND RAPIDS   TSTM      66  64  93 CALM      29.91S
CRANE LAKE     MOCLDY    61  57  88 CALM      29.91R
ORR            FAIR      64  57  77 CALM      29.87F
COOK           RAIN      64  61  88 CALM      29.90S
WALKER         RAIN      64  64  97 CALM      29.87F
$$
MNZ012-019>021-037-280600-
   Northeast Minnesota

CITY           SKY/WX    TMP DP  RH WIND       PRES   REMARKS
DULUTH         TSTM      69  62  78 NW9       29.93R
ELY            FAIR      63  59  88 CALM      29.89S
HIBBING        FAIR      65  62  90 CALM      29.89R
EVELETH        FAIR      68  63  83 CALM      29.91R
DULUTH HARBOR  FAIR      54  52  94 CALM      29.88R THUNDER
TWO HARBORS    TSTM      66  61  82 NW3       29.88R
SILVER BAY     FAIR      64  64 100 CALM      29.86R
GRAND MARAIS     N/A     46  43  89 E5        29.85F
G MARAIS ARPRT FAIR      64  55  72 CALM      29.91F
$$
MNZ029>031-032-039>041-046>048-054>057-064-280600-
   West Central Minnesota

CITY           SKY/WX    TMP DP  RH WIND       PRES   REMARKS
FERGUS FALLS   FAIR      75  61  60 E12G21    29.76R
WHEATON        CLOUDY    72  63  73 NW5       29.80R
MORRIS         PTCLDY    73  63  68 NE5       29.79R
ALEXANDRIA     FAIR      75  62  64 NE9       29.84R
ELBOW LAKE     FAIR      74  63  66 NE15      29.81R
WADENA         FAIR      70  61  73 NE8       29.85S
GLENWOOD       FAIR      72  63  73 NE5       29.82R
BENSON         CLOUDY    77  57  50 S6        29.79R
ORTONVILLE     CLOUDY    77  63  61 NW8       29.79R
MADISON        CLOUDY    77  57  50 SE5       29.80R
WILLMAR        FAIR      73  57  56 CALM      29.82R
$$
MNZ033>034-036-042>043-049>051-058-059-280600-
   Central Minnesota

CITY           SKY/WX    TMP DP  RH WIND       PRES   REMARKS
ST CLOUD       FAIR      79  57  46 MISG      29.79R
SAUK CENTRE    FAIR      73  61  66 N3        29.82R
PAYNESVILLE    FAIR      79  60  52 SE8       29.80R
AITKIN         FAIR      70  59  68 NE8       29.86S
PINE RIVER     FAIR      70  59  68 NE5       29.90S
BRAINERD       MOCLDY    70  62  76 NE7       29.86R
STAPLES        FAIR      72  61  68 CALM      29.85S
LONG PRAIRIE   FAIR      70  61  73 N6        29.84R
LITTLE FALLS   FAIR      72  61  68 CALM      29.84R
LITCHFIELD     FAIR      82  57  42 SE3       29.81R
BUFFALO        FAIR      82  54  37 S7        29.81S
MAPLE LAKE     FAIR      81  58  45 S3        29.82R
HUTCHINSON     FAIR      78  60  53 SE3       29.83R
$$
MNZ037-044-045-052-053-280600-
   East Central Minnesota

CITY           SKY/WX    TMP DP  RH WIND       PRES   REMARKS
PRINCETON      FAIR      70  61  73 N3        29.81R
MORA           FAIR      70  59  68 CALM      29.84R
CAMBRIDGE      FAIR      73  61  64 CALM      29.81R
RUSH CITY      FAIR      69  61  74 CALM      29.82R
MOOSE LAKE     MOCLDY    68  61  77 N5        29.87R
HINCKLEY       FAIR      68  63  83 CALM      29.83S
CLOQUET        MOCLDY    70  57  64 N7        29.92R THUNDER
MCGREGOR       MOCLDY    72  61  68 NE7       29.89S
$$
MNZ071>073-080-081-089-090-097-098-280600-
   Southwest Minnesota

CITY           SKY/WX    TMP DP  RH WIND       PRES   REMARKS
MONTEVIDEO     CLOUDY    77  54  44 W6        29.80R
CANBY          CLOUDY    79  60  51 SW3       29.82R
MARSHALL       CLOUDY    78  60  53 SW5       29.82R
REDWOOD FALLS  PTCLDY    78  61  55 S8        29.80R
OLIVIA         CLOUDY    79  57  47 S8        29.80R
PIPESTONE      CLOUDY    75  57  53 SW8       29.87R
WINDOM         CLOUDY    82  54  36 SW8       29.84R
WORTHINGTON    CLOUDY    84  58  40 SW13      29.88R
JACKSON        CLOUDY    77  59  53 S7        29.88R
SLAYTON        CLOUDY    81  55  41 SW10      29.87R
$$
MNZ065>067-074>077-082>085-091>093-280600-
   South Central Minnesota

CITY           SKY/WX    TMP DP  RH WIND       PRES   REMARKS
MANKATO        FAIR      83  58  42 S10       29.84R
NEW ULM        PTCLDY    82  52  34 S15       29.82R
ST JAMES       PTCLDY    82  55  39 SE13      29.85R
FAIRMONT       CLEAR     80  59  48 S9        29.87R
GLENCOE        FAIR      83  56  38 S7        29.81R
FARIBAULT      FAIR      81  55  41 CALM      29.84R
OWATONNA       FAIR      82  57  42 S12       29.85S
WASECA         FAIR      79  54  41 SE10      29.86R
ALBERT LEA     FAIR      81  52  36 S7        29.87R
$$
MNZ078>079-086>088-094>096-280600-
   Southeast Minnesota

CITY           SKY/WX    TMP DP  RH WIND       PRES   REMARKS
ROCHESTER      FAIR      75  56  51 S10       29.87F
RED WING       FAIR      79  48  34 E5        29.81F
STANTON        FAIR      82  54  36 S12       29.81S
DODGE CENTER   FAIR      75  54  46 CALM      29.86F
WINONA         FAIR      72  63  73 CALM      29.85S
AUSTIN         FAIR      81  55  41 S6        29.86F
PRESTON        FAIR      73  55  52 SE5       29.89S
$$
ABBREVIATIONS USED IN REMARKS
   TC - TEMPERATURES IN CELSIUS
  WCI - WIND CHILL INDEX
   HX - HEAT INDEX
  VSB - VISIBILITY
$$




USA.gov is the U.S. government's official web portal to all federal, state and local government web resources and services.